sat.trackr.live / text

‹ back to catalog

STARLINK-32546

NORAD 62134 · 2024-222W

PAYLOAD ACTIVE UNKNOWN

§ Identity

Operator
Country
US
Launch date
2024-11-27
Launch site
AFETR
Launch vehicle
Mass (kg)
RCS (m²)

Purposes: comms

External: N2YO · Heavens-Above · Gunter

§ Orbital elements

Epoch: 2026-09-20T23:28:25.920192Z

Period
94.27 min
Inclination
43.0051°
Eccentricity
0.0001761
Mean motion
15.27595178 rev/d
Perigee alt
481.8 km
Apogee alt
484.2 km
Semi-major
6,861.1 km
B*
6.2774e-4
RAAN
110.0197°
Arg perigee
260.1511°
Mean anomaly
99.9142°
Rev number
10,254

§ Raw data

STARLINK-325461 62134U 24222W   26263.97807778  .00017060  00000+0  62774-3 0  99922 62134  43.0051 110.0197 0001761 260.1511  99.9142 15.27595178102547

JSON: /api/v1/satellites/62134 · /tle

For live sub-satellite position, see the globe view (requires WebGL).

§ Visibility from observer

Set your observer location to see the next 7 days of passes ≥ 10°. The values pass through the URL so the page stays shareable.

No JS? Fill the form by hand. The geolocation button needs JavaScript.